Volver al catálogo

SATCOM 3 DEB

ActivoHEO
NORAD 38688·DEBRIS·🇺🇸 United States

Lanzado Dec 7, 1979 desde Cape Canaveral Space Force Station

Loading…

Próximos Pases (próximas 24 horas)

TLE

ActualizadoSource: Space-Track

Época: Sep 14, 2026, 01:41 UTC

1 38688U 79101X   26257.07065177 -.00000162  00000-0  00000-0 0  9996
2 38688   8.2707  82.7055 4940827 107.5752 310.9153  1.80454821 13859

Sigue SATCOM 3 DEB en tiempo real con AllMySat

Download on the App Store